Location: Wieruszow
(51.2830°N, 18.1670°E)
Time: 11:17:37
(UTC+01:00)

ISS - Visible Passes

Search period start: 21 November 2017 00:00
Search period end: 01 December 2017 00:00
Orbit: 402 x 407 km, 51.6° (Epoch: 21 November)

Date Brightness Start Highest point End Pass type
(mag) Time Alt. Az. Time Alt. Az. Time Alt. Az.
28 Nov -1.3 18:17:00 10° SSW 18:17:53 15° SSW 18:17:53 15° SSW visible
29 Nov -1.8 17:25:27 10° S 17:27:34 16° SE 17:27:47 16° SE visible
29 Nov -0.4 19:00:19 10° WSW 19:00:27 11° WSW 19:00:27 11° WSW visible
30 Nov -2.4 18:08:08 10° SW 18:10:17 31° SSW 18:10:17 31° SSW visible
